BREEZE-KM DEB, 41721

Orbit data source: Space-Track

BREEZE-KM DEB, 41721 is space debris in LEO originally from a launch on Tue, 31 Mar 2015 UTC launched from the Plesetsk Missile And Space Complex (PKMTR). Debris objects in space refer to the collection of defunct objects orbiting the Earth. Examples of debris include non-operational satellites, rocket bodies, and fragments generated from explosions, collisions, or faulty payload assembly.

Loading next visibility...
Identifier
41721, 2015-020J
Orbit
LEO
Country
Flag of CISCIS
Related business
Manufacturer
Khrunichev
Mission
Spacecraft
Bus & Motor
Unknown
Mass
Unknown
Launch date (UTC)
2015-03-31 (11 years ago)
Launch vehicle
Unknown
Launch site
Plesetsk Missile And Space Complex (PKMTR)
Object type
Payload
Rocket body
Debris
Shape & HBR
Unknown shape, 0.1 m
Radar Cross Section
Medium (>0.1 m² and <1 m²)

Expand to show TLE details & history
Last TLE update: 18 hours ago

TLE from 18 hours ago
0 BREEZE-KM DEB
1 41721U 15020J   26174.42203502  .00000016  00000-0  13936-4 0  9994
2 41721  82.4905 231.2023 0246151 122.8882 239.6163 12.74751498512981
Epoch: 2026-06-23T10:07Z
TLE epoch observation values (Epoch: 2026-06-23T10:07:43.825Z)
Latitude
-0.00008°
Longitude
167.67585°
Altitude
1,465.211 km
Speed
7.084 km/s
True Right ascension
15h 24m 48s
True Declination
0° 00' 00"
Sunlit
Object was in full shadow at epoch
Visualization orbit readout
Latitude
Unknown
Longitude
Unknown
Altitude
Unknown
Speed
Unknown
Apparent Right ascension
Unknown
Apparent Declination
Unknown
Sunlit
N/A
Visualization observer readout
Local Sidereal Time
15:42:07
Azimuth
Unknown
Elevation
Unknown
Doppler factor
Unknown
Orbital elements
Apogee altitude
1,550.422 km
Perigee altitude
1,169.475 km
Semi-major axis
7,738.086 km
Eccentricity
0.02462
Inclination
82.4905°
RAAN
231.2023°
Arg. of periapsis
122.8882°
True anomaly
237.22102°
Mean anomaly
239.6163°
Eccentric anomaly
238.41488°
Mean motion
3.18855 °/min
Orbital period
112.9 mins
BSTAR
0.000013936
Loading maneuver chart data...
Computing Atmospheric mass density...
Loading historical data...
Loading historical data...
Loading historical data...
Loading historical data...
Loading historical data...
Loading historical data...
Loading historical data...

Documentation

Showing up to 5 results
|